Seattle, WA
on Friday, December 7, 2012

Friday
Previous Day Next Day
Daily Summary
 ActualAverageRecord
Temperature
Mean Temperature °F 41°F  
Max Temperature 46°F 46°F 55°F (1962)
Min Temperature 38°F 36°F 18°F (1972)
Degree Days
Heating Degree Days 23 24  
Month to date heating degree days 131 164  
Since 1 July heating degree days 1158 1347  
Cooling Degree Days 0 0  
Month to date cooling degree days 0 0  
Year to date cooling degree days 177 189  
Moisture
Dew Point 37°F   
Average Humidity 80    
Maximum Humidity 89    
Minimum Humidity 71    
Precipitation
Precipitation 0.04 in 0.19 in 0.88 in (1968)
Month to date precipitation 2.16 1.35  
Year to date precipitation 43.57 33.49  
Snow
Snow 0.00 in in 2.00 in (1966)
Month to date snowfall 0.0  
Since 1 July snowfall 0.0  
Snow Depth 0.00 in   
Wind
Wind Speed 10 mph   
Max Wind Speed 23 mph   
Max Gust Speed 31 mph   
Visibility 10 miles   
Events Rain   

Key: T is trace of precipitation, MM is missing value
Source: NWS Daily Summary
Time(PST)TemperatureDew PointHumidity Pressure Visibility Wind DirectionWind SpeedGust SpeedPrecipitationEvents Conditions
12:53 AM 43.0°F 39.0°F 86% 30.11 in 10.0 miles South 15.0 mph - N/A   Mostly Cloudy
1:17 AM 44.6°F 37.4°F 76% 30.08 in 10.0 miles South 12.7 mph 20.7 mph N/A   Mostly Cloudy
1:53 AM 44.1°F 39.0°F 82% 30.10 in 10.0 miles SSW 12.7 mph - 0.01 in Rain Light Rain
2:53 AM 43.0°F 39.9°F 89% 30.09 in 10.0 miles South 12.7 mph - 0.02 in Rain Light Rain
3:53 AM 44.1°F 39.9°F 85% 30.07 in 10.0 miles South 15.0 mph - 0.01 in   Overcast
4:17 AM 44.6°F 39.2°F 81% 30.03 in 10.0 miles South 16.1 mph - 0.00 in Rain Light Rain
4:53 AM 44.1°F 39.9°F 85% 30.06 in 10.0 miles South 13.8 mph - 0.00 in   Overcast
5:53 AM 44.1°F 39.9°F 85% 30.04 in 10.0 miles South 11.5 mph - 0.00 in   Overcast
6:00 AM 44.6°F 39.2°F 81% 30.01 in 10.0 miles South 11.5 mph - N/A   Overcast
6:53 AM 44.1°F 39.9°F 85% 30.02 in 10.0 miles SSW 11.5 mph - 0.00 in Rain Light Rain
7:53 AM 45.0°F 39.9°F 82% 29.99 in 10.0 miles South 16.1 mph 23.0 mph 0.00 in   Overcast
8:53 AM 45.0°F 39.9°F 82% 29.99 in 10.0 miles SW 19.6 mph 26.5 mph N/A   Mostly Cloudy
9:53 AM 45.0°F 39.0°F 80% 29.99 in 10.0 miles SSW 17.3 mph 25.3 mph N/A   Overcast
10:53 AM 46.0°F 39.0°F 76% 30.01 in 10.0 miles SW 17.3 mph 21.9 mph N/A   Overcast
11:04 AM 46.4°F 39.2°F 76% 29.98 in 10.0 miles SSW 15.0 mph - N/A   Overcast
11:32 AM 46.4°F 37.4°F 71% 29.97 in 10.0 miles WSW 13.8 mph 20.7 mph N/A   Overcast
11:53 AM 46.0°F 37.9°F 73% 30.00 in 10.0 miles SW 11.5 mph 20.7 mph N/A   Overcast
12:53 PM 45.0°F 37.9°F 76% 30.01 in 10.0 miles WSW 10.4 mph - N/A   Overcast
1:53 PM 46.0°F 37.0°F 71% 30.03 in 10.0 miles NW 8.1 mph - N/A   Overcast
1:57 PM 44.6°F 37.4°F 76% 30.00 in 10.0 miles North 11.5 mph - 0.00 in Rain Light Rain
2:25 PM 42.8°F 37.4°F 81% 30.01 in 9.0 miles North 5.8 mph - 0.00 in Rain Light Rain
2:53 PM 42.1°F 37.9°F 85% 30.05 in 10.0 miles North 3.5 mph - 0.00 in   Mostly Cloudy
3:15 PM 42.8°F 37.4°F 81% 30.03 in 10.0 miles Calm Calm - N/A   Mostly Cloudy
3:53 PM 42.1°F 37.0°F 82% 30.07 in 10.0 miles South 3.5 mph - N/A   Mostly Cloudy
4:53 PM 41.0°F 36.0°F 82% 30.09 in 10.0 miles ESE 3.5 mph - N/A   Mostly Cloudy
5:53 PM 41.0°F 33.1°F 73% 30.11 in 10.0 miles South 3.5 mph - N/A   Mostly Cloudy
6:53 PM 39.9°F 33.1°F 77% 30.12 in 10.0 miles SSW 5.8 mph - N/A   Mostly Cloudy
7:53 PM 39.9°F 33.1°F 77% 30.12 in 10.0 miles SSW 10.4 mph - N/A   Mostly Cloudy
8:53 PM 41.0°F 33.1°F 73% 30.14 in 10.0 miles SSW 5.8 mph - N/A   Overcast
9:53 PM 39.9°F 32.0°F 73% 30.16 in 10.0 miles SSE 4.6 mph - N/A   Mostly Cloudy
10:53 PM 37.9°F 32.0°F 79% 30.16 in 10.0 miles South 6.9 mph - N/A   Mostly Cloudy
11:53 PM 37.9°F 32.0°F 79% 30.17 in 10.0 miles SSE 6.9 mph - N/A   Mostly Cloudy
Moon Phase
Dec. 07 Dec. 13 Dec. 20 Dec. 28 Jan. 04
Sunrise:07:43 AM (PST) Moon Rise:12:45 AM (PST)12/7
Sunset:04:18 PM (PST) Moon Set:12:39 PM (PST)12/7

Copyright © 2014 The Weather Underground, Inc.